Tracking 20241 objects as of 26-Jan-2020
HD Live streaming from Space Station
objects crossing your sky now

SL-12 R/B(AUX MOTOR) DEB

Track SL-12 R/B(AUX MOTOR) DEB now!
10-day predictions


NORAD ID: 41806
Int'l Code: 2006-062L
Perigee: 370.4 km
Apogee: 19,714.7 km
Inclination: 64.0 °
Period: 348.8 minutes
Semi major axis: 16413 km
RCS: Unknown
Launch date: December 25, 2006
Source: Commonwealth of Independent States (former USSR) (CIS)
Launch site: TYURATAM MISSILE AND SPACE COMPLEX (TTMTR)

Note: This is SATELLITE DEBRIS
aabbcc
Your satellite tracking list
Your tracking list is empty




NASA's NSSDC Master Catalog

Two Line Element Set (TLE):
1 41806U 06062L   20026.37473707 -.00000136 +00000-0 +68798-4 0  9994
2 41806 063.9517 157.4017 5892784 004.1228 359.0464 04.12856214052558
Source of the keplerian elements: AFSPC